Cincinnati, OH

11:56 AM EDT on May 24, 2018 (GMT -0400)
Cincinnati Municipal-Lunken

Weather History for KLUK - April, 2013

Change the Weather History Date:

Thursday, April 11, 2013

  Actual Average Record
Temperature  
Mean Temperature 62 °F -  
Max Temperature 68 °F 65 °F 86 °F (2001)
Min Temperature 59 °F 41 °F 24 °F (1989)
Degree Days  
Heating Degree Days 2    
Growing Degree Days 12 (Base 50)    
Moisture  
Dew Point 59 °F    
Average Humidity 91    
Maximum Humidity 100    
Minimum Humidity 73    
Precipitation  
Precipitation 0.52 in - - ()
Sea Level Pressure  
Sea Level Pressure 29.71 in    
Wind  
Wind Speed 6 mph (South)    
Max Wind Speed 12 mph    
Max Gust Speed 18 mph    
Visibility 7 miles    
Events Rain    
Averages and records for this station are not official NWS values.
T = Trace of Precipitation, MM = Missing Value Source: NWS Daily Summary

Daily Weather History Graph

Daily Weather History Graph

Search for Another Location

Airport or City:

Astronomy

Apr. 11, 2013 Rise Set
Actual Time 7:06 AM EDT 8:11 PM EDT
Civil Twilight 6:39 AM EDT 8:38 PM EDT
Nautical Twilight 6:06 AM EDT 9:11 PM EDT
Astronomical Twilight 5:32 AM EDT 9:45 PM EDT
Moon 7:38 AM EDT (4/11) 9:44 PM EDT (4/11)
Length of Visible Light 13h 59m
Length of Day
13h 04m
New Moon, 2% of the Moon is Illuminated
Apr 11
New Moon
Apr 18
First Quarter
Apr 25
Full
May 2
Last Quarter
May 9
New

Hourly Weather History & Observations

Time (EDT) Temp. Dew Point Humidity Pressure Visibility Wind Dir Wind Speed Gust Speed Precip Events Conditions
12:53 AM 66.9 °F 57.9 °F 73% 29.79 in 10.0 mi NNE 8.1 mph - N/A   Scattered Clouds
1:53 AM 63.0 °F 57.0 °F 81% 29.79 in 10.0 mi NNE 6.9 mph - N/A   Partly Cloudy
2:53 AM 63.0 °F 55.9 °F 78% 29.76 in 10.0 mi NNE 4.6 mph - N/A   Clear
3:53 AM 60.1 °F 57.0 °F 90% 29.74 in 10.0 mi Calm Calm - N/A   Clear
4:53 AM 59.0 °F 57.0 °F 93% 29.74 in 10.0 mi Calm Calm - N/A   Clear
5:53 AM 63.0 °F 57.0 °F 81% 29.77 in 10.0 mi Calm Calm - N/A   Overcast
6:53 AM 66.0 °F 57.9 °F 75% 29.80 in 6.0 mi Variable 5.8 mph - 0.00 in Rain Rain
7:53 AM 62.1 °F 60.1 °F 93% 29.83 in 1.8 mi NW 3.5 mph - 0.13 in Rain Heavy Rain
7:58 AM 62.6 °F 60.8 °F 94% 29.83 in 4.0 mi North 5.8 mph - 0.01 in Rain Rain
8:53 AM 62.1 °F 61.0 °F 96% 29.82 in 7.0 mi East 4.6 mph - 0.01 in Rain Light Rain
9:38 AM 60.8 °F 60.8 °F 100% 29.82 in 1.8 mi East 4.6 mph - 0.07 in Rain Heavy Rain
9:46 AM 60.8 °F 60.8 °F 100% 29.81 in 2.0 mi East 4.6 mph - 0.10 in Rain Rain
9:53 AM 61.0 °F 60.1 °F 97% 29.78 in 2.5 mi East 10.4 mph - 0.12 in Rain Heavy Rain
10:03 AM 60.8 °F 60.8 °F 100% 29.78 in 6.0 mi ESE 11.5 mph - 0.00 in Rain Light Rain
10:53 AM 62.1 °F 60.1 °F 93% 29.74 in 10.0 mi SE 8.1 mph - 0.00 in Rain Light Rain
11:53 AM 64.0 °F 61.0 °F 90% 29.77 in 10.0 mi SE 3.5 mph - 0.00 in   Mostly Cloudy
12:53 PM 66.2 °F 62.6 °F 88% 29.76 in 10.0 mi South 5.8 mph - N/A Rain Light Rain
1:53 PM 66.0 °F 62.1 °F 87% 29.73 in 9.0 mi South 3.5 mph - 0.00 in Rain Light Rain
2:53 PM 66.9 °F 63.0 °F 87% 29.71 in 10.0 mi SSE 5.8 mph - 0.00 in   Overcast
3:53 PM 66.9 °F 61.0 °F 81% 29.67 in 10.0 mi South 5.8 mph - 0.00 in   Overcast
4:53 PM 66.9 °F 60.1 °F 79% 29.64 in 10.0 mi WSW 6.9 mph - N/A   Overcast
5:53 PM 64.9 °F 57.9 °F 78% 29.62 in 10.0 mi WSW 9.2 mph - N/A   Overcast
6:15 PM 62.6 °F 60.8 °F 94% 29.64 in 5.0 mi WSW 11.5 mph 18.4 mph 0.08 in Rain Light Rain
6:43 PM 60.8 °F 60.8 °F 100% 29.64 in 1.8 mi WNW 8.1 mph 18.4 mph 0.17 in Rain Rain
6:46 PM 60.8 °F 60.8 °F 100% 29.65 in 2.0 mi West 8.1 mph 18.4 mph 0.17 in Rain Rain
6:53 PM 61.0 °F 59.0 °F 93% 29.64 in 3.0 mi West 9.2 mph 17.3 mph 0.19 in Rain Rain
7:53 PM 60.1 °F 59.0 °F 96% 29.65 in 3.0 mi SE 3.5 mph - N/A Rain Rain
8:53 PM 60.1 °F 59.0 °F 96% 29.61 in 10.0 mi Calm Calm - 0.07 in Rain Light Rain
9:53 PM 60.1 °F 59.0 °F 96% 29.58 in 10.0 mi West 4.6 mph - 0.00 in Rain Light Rain
10:53 PM 59.0 °F 57.9 °F 96% 29.60 in 10.0 mi South 6.9 mph - 0.00 in   Overcast
11:10 PM 59.0 °F 57.2 °F 94% 29.59 in 10.0 mi South 3.5 mph - N/A   Overcast
11:26 PM 59.0 °F 57.2 °F 94% 29.58 in 10.0 mi SSW 5.8 mph - N/A   Overcast
11:53 PM 59.0 °F 57.9 °F 96% 29.56 in 10.0 mi Calm Calm - N/A   Overcast